Location: Saint-Gilles les Bains
(21.0539°S, 55.2287°E)
Time: 19:24:13
(UTC+04:00)

Hubble Space Telescope - Pass Details

Date: 12 December 2023
Orbit: 516 x 519 km, 28.5° (Epoch: 22 February)

Event Time Altitude Azimuth Distance (km) Brightness Sun altitude
Exits shadow 04:23:43 23° 328° (NNW) 1,139 1.9 -14.6°
Maximum altitude 04:23:52 23° 331° (NNW) 1,137 1.9 -14.6°
Drops below altitude 10° 04:27:06 10° 25° (NNE) 1,748 3.3 -13.9°
Sets 04:29:40 0° 40° (NE) 2,630 4.4 -13.4°
